SCP
0 0 0 0 0 0 0 0 0 0 0 0 0 0 0 0 0 0 0 0 0 0 0 0 0 0 0 0 0 0 0 0
0 0 0 0 0 0 0 0 0 0 0 0 0 0 0 0 0 0 0 0 0 0 0 0 0 0 0 0 0 0 0 0
0 0 0 0 0 0 0 0 0 0 0 0 0 0 0 0 0 0 0 0 0 0 0 0 0 0 0 0 0 0 0 0
0 0 0 0 0 0 0 0 0 0 0 0 0 0 0 0 0 0 0 0 0 0 0 0 0 0 0 0 0 0 0 0
0 0 0 0 0 0 0 0 0 0 0 0 0 0 0 0 0 0 0 0 0 0 0 0 0 0 0 0 0 0 0 0
0 0 0 0 0 0 0 0 0 0 0 0 0 0 0 0 0 0 0 0 0 0 0 0 0 0 0 0 0 0 0 0
0 0 0 0 0 0 0 0 0 0 0 0 0 0 0 0 0 0 0 0 0 0 0 0 0 0 0 0 0 0 0 0
0 0 0 0 0 0 0 0 0 0 0 0 0 0 0 0 0 0 0 0 0 0 0 0 0 0 0 0 0 0 0 0
0 0 0 0 0 0 0 0 0 0 0 0 0 0 0 0 0 0 0 0 0 0 0 0 0 0 0 0 0 0 0 0
0 0 0 0 0 0 0 0 0 0 0 0 0 0 0 0 0 0 0 0 0 0 0 0 0 0 0 0 0 0 0 0
0 0 0 0 0 0 0 0 0 0 0 0 0 0 0 0 0 0 0 0 0 0 0 0 0 0 0 0 0 0 0 0
0 0 0 0 0 0 0 0 0 0 0 0 0 0 0 0 0 0 0 0 0 0 0 0 0 0 0 0 0 0 0 0
0 0 0 0 0 0 0 0 0 0 0 0 0 0 0 0 0 0 0 0 0 0 0 0 0 0 0 0 0 0 0 0
0 0 0 0 0 0 0 0 0 0 0 0 0 0 0 0 0 0 0 0 0 0 0 0 0 0 0 0 0 0 0 0
0 0 0 0 0 0 0 0 0 0 0 0 0 0 0 0 0 0 0 0 0 0 0 0 0 0 0 0 0 0 0 0
0 0 0 0 0 0 0 0 0 0 0 0 0 0 0 0 0 0 0 0 0 0 0 0 0 0 0 0 0 0 0 0
0 0 0 0 0 0 0 0 0 0 0 0 0 0 0 0 0 0 0 0 0 0 0 0 0 0 0 0 0 0 0 0
0 0 0 0 0 0 0 0 0 0 0 0 0 0 0 0 0 0 0 0 0 0 0 0 0 0 0 0 0 0 0 0
0 0 0 0 0 0 0 0 0 0 0 0 0 0 0 0 0 0 0 0 0 0 0 0 0 0 0 0 0 0 0 0
0 0 0 0 0 0 0 0 0 0 0 0 0 0 0 0 0 0 0 0 0 0 0 0 0 0 0 0 0 0 0 0
Wind_Speed_500mb
67 73 82 89 91 88 86 85 81 77 76 73 68 63 57 53 51 47 45 42 40 38 36 33 30 28 25 23 21 20 18 16
58 64 71 83 88 90 88 84 81 76 75 73 69 65 62 57 53 52 49 45 43 40 37 35 32 29 27 25 23 22 20 19
49 60 68 77 86 92 89 83 79 74 75 75 71 68 66 64 57 55 52 48 45 42 40 37 34 32 29 27 25 24 23 23
38 56 68 77 85 89 89 84 79 75 75 75 74 70 69 65 60 58 55 51 48 45 42 39 36 34 31 30 28 27 27 27
42 51 60 72 79 86 86 84 82 79 74 73 74 71 68 64 61 58 55 51 48 45 42 40 38 37 35 33 32 31 32 34
50 58 60 69 77 80 83 87 86 80 75 72 71 68 64 63 61 57 54 51 49 46 45 43 41 39 38 36 35 36 37 39
50 65 74 75 78 79 81 82 83 81 77 73 67 64 63 61 58 56 54 52 50 49 46 43 42 40 40 38 39 39 38 38
55 64 73 78 80 82 83 82 81 80 76 72 66 63 62 58 55 54 53 52 51 48 45 43 42 41 39 37 36 34 34 36
49 53 65 74 72 77 77 80 79 79 75 71 67 63 60 57 55 55 54 50 46 43 42 40 37 38 33 30 30 32 34 35
38 45 53 63 63 68 70 70 71 73 72 69 67 65 63 61 57 54 50 47 44 41 38 34 30 30 28 26 26 27 29 32
29 38 43 54 61 67 70 71 71 71 68 65 63 61 60 58 56 51 46 43 40 37 33 30 26 26 25 22 20 23 28 35
21 31 37 49 60 67 68 67 65 63 60 58 56 57 56 55 50 47 44 40 36 32 28 25 22 18 18 20 25 28 34 40
23 31 39 45 52 58 59 57 56 55 54 55 55 54 53 50 48 43 40 37 33 29 24 18 13 15 18 24 31 35 42 46
26 31 34 37 42 52 51 51 54 55 58 58 57 55 52 49 48 44 38 32 27 22 14 9 10 16 25 32 35 36 37 46
33 40 43 43 46 44 53 54 56 60 60 59 57 57 52 48 42 37 32 26 18 10 4 9 18 25 28 33 39 45 49 56
44 50 55 54 52 53 55 57 61 62 63 61 57 52 49 43 36 28 21 13 7 5 12 20 24 28 28 34 42 44 48 55
51 54 61 60 62 62 59 55 59 64 62 58 55 50 42 34 30 21 11 2 8 14 19 27 30 32 37 40 43 47 49 57
62 65 69 68 68 66 62 57 57 59 58 53 46 41 34 26 17 9 2 7 15 21 26 33 41 48 55 58 51 43 45 61
69 71 70 70 68 62 57 54 53 52 49 43 38 30 22 15 8 6 9 15 20 27 35 43 50 54 56 48 48 59 55 57
69 71 71 71 70 60 53 51 50 46 41 32 26 19 12 7 6 13 20 28 36 42 44 50 53 53 43 46 55 58 56 54
Wind_Direction_500mb
204 201 205 212 210 209 210 209 209 209 209 210 210 210 209 211 211 211 212 212 210 209 208 208 209 212 216 220 225 232 242 256
203 201 200 210 209 208 209 208 209 210 210 212 213 212 213 214 214 216 217 215 214 214 214 215 217 219 223 228 233 241 250 259
204 196 196 206 208 207 207 208 210 210 210 211 212 213 213 215 216 217 218 218 218 218 218 220 222 225 229 234 241 248 257 266
210 202 197 202 205 207 208 209 210 210 211 211 213 213 215 216 217 218 219 219 220 221 223 225 227 230 234 240 247 255 262 268
210 213 206 203 205 207 207 209 211 211 211 212 213 215 216 216 218 219 219 221 222 223 225 227 230 234 240 246 252 257 263 269
218 208 210 209 209 209 211 211 212 211 211 213 214 215 215 216 218 219 219 220 221 222 225 229 234 239 245 250 256 261 266 272
245 230 219 215 213 210 209 210 210 211 211 212 212 212 213 215 216 216 218 219 220 222 226 231 237 242 247 253 258 263 266 272
258 247 230 221 213 211 208 211 209 209 209 210 210 209 211 212 212 212 214 216 218 222 227 232 237 242 246 252 257 264 271 276
267 244 232 223 216 214 212 211 208 206 206 207 207 207 207 206 206 207 212 216 217 219 221 226 230 240 246 252 260 267 272 277
266 237 227 218 211 207 203 202 200 200 202 203 205 204 204 204 205 207 209 209 209 211 213 216 222 240 249 255 262 270 277 282
221 214 211 207 203 198 194 193 193 195 197 201 202 202 200 199 199 200 200 201 199 200 202 208 217 238 252 260 272 284 290 293
191 189 187 188 190 188 186 187 189 191 192 191 191 192 193 191 190 190 188 188 187 189 193 203 215 237 262 282 296 298 297 299
178 173 174 179 182 176 174 175 177 177 176 175 176 177 175 179 173 173 175 176 176 180 183 192 216 265 294 299 294 295 297 299
171 166 163 167 170 168 161 163 164 164 161 162 162 161 161 164 163 163 164 166 167 172 187 223 282 296 290 291 293 298 305 303
157 156 151 153 156 162 156 156 157 154 151 151 153 152 152 154 154 156 156 160 166 182 250 283 276 280 290 302 306 308 311 314
153 150 145 149 148 148 149 154 153 150 147 146 146 145 144 143 142 145 146 156 166 237 273 279 291 302 311 313 312 316 314 311
149 150 145 146 144 144 146 153 151 146 144 143 143 142 141 143 142 143 141 170 276 284 294 300 302 303 310 313 314 314 312 297
149 149 146 145 143 143 146 151 148 144 142 142 142 140 137 132 124 115 148 278 295 299 300 304 304 306 306 306 312 308 304 299
151 148 146 143 139 138 141 145 143 141 139 138 133 126 120 119 146 213 262 280 289 300 304 304 305 306 307 312 306 307 305 303
150 145 144 141 135 138 142 143 138 136 131 126 121 124 145 186 263 299 308 312 312 310 309 311 313 316 314 312 314 313 312 312
Wind_Speed_850mb
67 73 82 89 91 88 86 85 81 77 76 73 68 63 57 53 51 47 45 42 40 38 36 33 30 28 25 23 21 20 18 16
58 64 71 83 88 90 88 84 81 76 75 73 69 65 62 57 53 52 49 45 43 40 37 35 32 29 27 25 23 22 20 19
49 60 68 77 86 92 89 83 79 74 75 75 71 68 66 64 57 55 52 48 45 42 40 37 34 32 29 27 25 24 23 23
38 56 68 77 85 89 89 84 79 75 75 75 74 70 69 65 60 58 55 51 48 45 42 39 36 34 31 30 28 27 27 27
42 51 60 72 79 86 86 84 82 79 74 73 74 71 68 64 61 58 55 51 48 45 42 40 38 37 35 33 32 31 32 34
50 58 60 69 77 80 83 87 86 80 75 72 71 68 64 63 61 57 54 51 49 46 45 43 41 39 38 36 35 36 37 39
50 65 74 75 78 79 81 82 83 81 77 73 67 64 63 61 58 56 54 52 50 49 46 43 42 40 40 38 39 39 38 38
55 64 73 78 80 82 83 82 81 80 76 72 66 63 62 58 55 54 53 52 51 48 45 43 42 41 39 37 36 34 34 36
49 53 65 74 72 77 77 80 79 79 75 71 67 63 60 57 55 55 54 50 46 43 42 40 37 38 33 30 30 32 34 35
38 45 53 63 63 68 70 70 71 73 72 69 67 65 63 61 57 54 50 47 44 41 38 34 30 30 28 26 26 27 29 32
29 38 43 54 61 67 70 71 71 71 68 65 63 61 60 58 56 51 46 43 40 37 33 30 26 26 25 22 20 23 28 35
21 31 37 49 60 67 68 67 65 63 60 58 56 57 56 55 50 47 44 40 36 32 28 25 22 18 18 20 25 28 34 40
23 31 39 45 52 58 59 57 56 55 54 55 55 54 53 50 48 43 40 37 33 29 24 18 13 15 18 24 31 35 42 46
26 31 34 37 42 52 51 51 54 55 58 58 57 55 52 49 48 44 38 32 27 22 14 9 10 16 25 32 35 36 37 46
33 40 43 43 46 44 53 54 56 60 60 59 57 57 52 48 42 37 32 26 18 10 4 9 18 25 28 33 39 45 49 56
44 50 55 54 52 53 55 57 61 62 63 61 57 52 49 43 36 28 21 13 7 5 12 20 24 28 28 34 42 44 48 55
51 54 61 60 62 62 59 55 59 64 62 58 55 50 42 34 30 21 11 2 8 14 19 27 30 32 37 40 43 47 49 57
62 65 69 68 68 66 62 57 57 59 58 53 46 41 34 26 17 9 2 7 15 21 26 33 41 48 55 58 51 43 45 61
69 71 70 70 68 62 57 54 53 52 49 43 38 30 22 15 8 6 9 15 20 27 35 43 50 54 56 48 48 59 55 57
69 71 71 71 70 60 53 51 50 46 41 32 26 19 12 7 6 13 20 28 36 42 44 50 53 53 43 46 55 58 56 54
Wind_Direction_850mb
204 201 205 212 210 209 210 209 209 209 209 210 210 210 209 211 211 211 212 212 210 209 208 208 209 212 216 220 225 232 242 256
203 201 200 210 209 208 209 208 209 210 210 212 213 212 213 214 214 216 217 215 214 214 214 215 217 219 223 228 233 241 250 259
204 196 196 206 208 207 207 208 210 210 210 211 212 213 213 215 216 217 218 218 218 218 218 220 222 225 229 234 241 248 257 266
210 202 197 202 205 207 208 209 210 210 211 211 213 213 215 216 217 218 219 219 220 221 223 225 227 230 234 240 247 255 262 268
210 213 206 203 205 207 207 209 211 211 211 212 213 215 216 216 218 219 219 221 222 223 225 227 230 234 240 246 252 257 263 269
218 208 210 209 209 209 211 211 212 211 211 213 214 215 215 216 218 219 219 220 221 222 225 229 234 239 245 250 256 261 266 272
245 230 219 215 213 210 209 210 210 211 211 212 212 212 213 215 216 216 218 219 220 222 226 231 237 242 247 253 258 263 266 272
258 247 230 221 213 211 208 211 209 209 209 210 210 209 211 212 212 212 214 216 218 222 227 232 237 242 246 252 257 264 271 276
267 244 232 223 216 214 212 211 208 206 206 207 207 207 207 206 206 207 212 216 217 219 221 226 230 240 246 252 260 267 272 277
266 237 227 218 211 207 203 202 200 200 202 203 205 204 204 204 205 207 209 209 209 211 213 216 222 240 249 255 262 270 277 282
221 214 211 207 203 198 194 193 193 195 197 201 202 202 200 199 199 200 200 201 199 200 202 208 217 238 252 260 272 284 290 293
191 189 187 188 190 188 186 187 189 191 192 191 191 192 193 191 190 190 188 188 187 189 193 203 215 237 262 282 296 298 297 299
178 173 174 179 182 176 174 175 177 177 176 175 176 177 175 179 173 173 175 176 176 180 183 192 216 265 294 299 294 295 297 299
171 166 163 167 170 168 161 163 164 164 161 162 162 161 161 164 163 163 164 166 167 172 187 223 282 296 290 291 293 298 305 303
157 156 151 153 156 162 156 156 157 154 151 151 153 152 152 154 154 156 156 160 166 182 250 283 276 280 290 302 306 308 311 314
153 150 145 149 148 148 149 154 153 150 147 146 146 145 144 143 142 145 146 156 166 237 273 279 291 302 311 313 312 316 314 311
149 150 145 146 144 144 146 153 151 146 144 143 143 142 141 143 142 143 141 170 276 284 294 300 302 303 310 313 314 314 312 297
149 149 146 145 143 143 146 151 148 144 142 142 142 140 137 132 124 115 148 278 295 299 300 304 304 306 306 306 312 308 304 299
151 148 146 143 139 138 141 145 143 141 139 138 133 126 120 119 146 213 262 280 289 300 304 304 305 306 307 312 306 307 305 303
150 145 144 141 135 138 142 143 138 136 131 126 121 124 145 186 263 299 308 312 312 310 309 311 313 316 314 312 314 313 312 312